| time (UTC) | temp F | wind direction | speed knots | gust knots | rain 1hr in | rain 24hr in | rain mn in | humidity % | barometer mb |
| 20260504060135 | 54 | 253 | 1.7 | 4.3 | 0.00 | 0.00 | 0.00 | 70 | 1005.9 |
| 20260504050205 | 57 | 215 | 7.0 | 7.0 | 0.00 | 0.00 | 0.00 | 65 | 1006.2 |
| 20260504045135 | 57 | 207 | 1.7 | 7.8 | 0.00 | 0.00 | 0.00 | 65 | 1006.0 |
| 20260504043135 | 57 | 211 | 3.5 | 9.6 | 0.00 | 0.00 | 0.00 | 65 | 1005.9 |
| 20260504042135 | 57 | 192 | 6.1 | 8.7 | 0.00 | 0.00 | 0.00 | 65 | 1006.0 |
| 20260504041205 | 58 | 180 | 4.3 | 8.7 | 0.00 | 0.00 | 0.00 | 64 | 1005.9 |
| 20260504040135 | 57 | 155 | 3.5 | 7.8 | 0.00 | 0.00 | 0.00 | 65 | 1005.9 |
| 20260504035136 | 58 | 163 | 4.3 | 8.7 | 0.00 | 0.00 | 0.00 | 64 | 1005.8 |
| 20260504034135 | 58 | 153 | 6.1 | 9.6 | 0.00 | 0.00 | 0.00 | 63 | 1005.9 |
| 20260504032135 | 59 | 171 | 6.1 | 9.6 | 0.00 | 0.00 | 0.00 | 63 | 1006.1 |
| 20260504031135 | 59 | 180 | 4.3 | 8.7 | 0.00 | 0.00 | 0.00 | 63 | 1006.1 |
| 20260504030135 | 59 | 151 | 3.5 | 7.8 | 0.00 | 0.00 | 0.00 | 62 | 1006.1 |
| 20260504025205 | 59 | 173 | 5.2 | 8.7 | 0.00 | 0.00 | 0.00 | 62 | 1006.2 |
| 20260504024135 | 59 | 178 | 2.6 | 7.0 | 0.00 | 0.00 | 0.00 | 62 | 1006.2 |
| 20260504023135 | 59 | 157 | 6.1 | 7.0 | 0.00 | 0.00 | 0.00 | 61 | 1006.2 |
| 20260504022135 | 60 | 171 | 5.2 | 6.1 | 0.00 | 0.00 | 0.00 | 59 | 1006.2 |
| 20260504021135 | 60 | 173 | 3.5 | 6.1 | 0.00 | 0.00 | 0.00 | 59 | 1006.1 |
| 20260504020135 | 62 | 161 | 2.6 | 6.1 | 0.00 | 0.00 | 0.00 | 56 | 1006.2 |
| 20260504015135 | 61 | 183 | 3.5 | 7.0 | 0.00 | 0.00 | 0.00 | 56 | 1006.0 |
| 20260504014135 | 62 | 215 | 3.5 | 7.0 | 0.00 | 0.00 | 0.00 | 56 | 1006.0 |
| 20260504013135 | 62 | 226 | 4.3 | 10.4 | 0.00 | 0.00 | 0.00 | 55 | 1006.0 |
| 20260504012205 | 62 | 204 | 6.1 | 6.1 | 0.00 | 0.00 | 0.00 | 54 | 1005.9 |
| 20260504011135 | 63 | 207 | 1.7 | 7.0 | 0.00 | 0.00 | 0.00 | 54 | 1005.8 |
| 20260504010135 | 63 | 202 | 1.7 | 7.0 | 0.00 | 0.00 | 0.00 | 52 | 1005.6 |
| 20260504005135 | 64 | 184 | 2.6 | 7.0 | 0.00 | 0.00 | 0.00 | 52 | 1005.6 |
| 20260504004135 | 64 | 203 | 5.2 | 7.0 | 0.00 | 0.00 | 0.00 | 51 | 1005.6 |
| 20260504003135 | 65 | 219 | 2.6 | 7.8 | 0.00 | 0.00 | 0.00 | 49 | 1005.7 |
| 20260504001135 | 66 | 220 | 2.6 | 11.3 | 0.00 | 0.00 | 0.00 | 47 | 1005.7 |
| 20260504000135 | 67 | 284 | 2.6 | 13.9 | 0.00 | 0.00 | 0.00 | 46 | 1005.9 |
| 20260503235135 | 67 | 252 | 6.1 | 11.3 | 0.00 | 0.00 | 0.00 | 47 | 1005.9 |
| 20260503233135 | 67 | 291 | 4.3 | 14.8 | 0.00 | 0.00 | 0.00 | 45 | 1005.8 |
| 20260503232135 | 68 | 254 | 8.7 | 13.9 | 0.00 | 0.00 | 0.00 | 44 | 1005.9 |
| 20260503231135 | 68 | 204 | 5.2 | 13.9 | 0.00 | 0.00 | 0.00 | 45 | 1006.1 |
| 20260503230135 | 68 | 250 | 5.2 | 13.0 | 0.00 | 0.00 | 0.00 | 44 | 1006.1 |
| 20260503225135 | 68 | 244 | 9.6 | 14.8 | 0.00 | 0.00 | 0.00 | 45 | 1006.2 |
| 20260503224135 | 68 | 210 | 6.1 | 16.5 | 0.00 | 0.00 | 0.00 | 44 | 1006.3 |
| 20260503223135 | 68 | 219 | 11.3 | 16.5 | 0.00 | 0.00 | 0.00 | 44 | 1006.3 |
| 20260503222135 | 68 | 188 | 7.0 | 14.8 | 0.00 | 0.00 | 0.00 | 42 | 1006.3 |
| 20260503221135 | 68 | 225 | 7.8 | 15.6 | 0.00 | 0.00 | 0.00 | 42 | 1006.2 |
| 20260503215135 | 68 | 180 | 4.3 | 18.2 | 0.00 | 0.00 | 0.00 | 46 | 1006.4 |
| 20260503214135 | 67 | 190 | 7.8 | 19.1 | 0.00 | 0.00 | 0.00 | 44 | 1006.3 |
| 20260503213135 | 67 | 217 | 12.2 | 17.4 | 0.00 | 0.00 | 0.00 | 44 | 1006.5 |
| 20260503212135 | 67 | 218 | 13.9 | 19.1 | 0.00 | 0.00 | 0.00 | 46 | 1006.7 |
| 20260503211135 | 67 | 177 | 13.0 | 21.7 | 0.00 | 0.00 | 0.00 | 46 | 1006.8 |
| 20260503210135 | 66 | 227 | 13.0 | 23.5 | 0.00 | 0.00 | 0.00 | 45 | 1007.1 |
| 20260503205135 | 65 | 186 | 7.0 | 22.6 | 0.00 | 0.00 | 0.00 | 49 | 1007.2 |
| 20260503204135 | 65 | 182 | 18.2 | 26.9 | 0.00 | 0.00 | 0.00 | 45 | 1007.6 |
| 20260503203135 | 64 | 172 | 14.8 | 26.1 | 0.00 | 0.00 | 0.00 | 46 | 1007.6 |
| 20260503202135 | 64 | 185 | 14.8 | 26.1 | 0.00 | 0.00 | 0.00 | 46 | 1007.9 |
| 20260503201205 | 63 | 186 | 8.7 | 17.4 | 0.00 | 0.00 | 0.00 | 47 | 1008.0 |
| 20260503200135 | 63 | 163 | 7.0 | 21.7 | 0.00 | 0.00 | 0.00 | 48 | 1008.2 |
| 20260503195135 | 62 | 204 | 10.4 | 27.8 | 0.00 | 0.00 | 0.00 | 49 | 1008.5 |
| 20260503194134 | 62 | 196 | 27.8 | 27.8 | 0.00 | 0.00 | 0.00 | 52 | 1008.5 |
| 20260503193134 | 62 | 175 | 9.6 | 26.1 | 0.00 | 0.00 | 0.00 | 55 | 1008.8 |
| 20260503192135 | 62 | 157 | 13.9 | 22.6 | 0.00 | 0.00 | 0.00 | 56 | 1009.1 |
| 20260503191135 | 61 | 178 | 12.2 | 26.9 | 0.00 | 0.00 | 0.00 | 56 | 1009.3 |
| 20260503190135 | 61 | 184 | 10.4 | 26.1 | 0.00 | 0.00 | 0.00 | 55 | 1009.2 |
| 20260503185135 | 60 | 135 | 11.3 | 25.2 | 0.00 | 0.00 | 0.00 | 55 | 1008.9 |
| 20260503184135 | 60 | 146 | 19.1 | 28.7 | 0.00 | 0.00 | 0.00 | 53 | 1009.1 |
| 20260503183135 | 60 | 126 | 17.4 | 26.9 | 0.00 | 0.00 | 0.00 | 52 | 1009.3 |
| 20260503182134 | 60 | 146 | 13.9 | 24.3 | 0.00 | 0.00 | 0.00 | 53 | 1009.4 |
| 20260503181134 | 59 | 148 | 12.2 | 31.3 | 0.00 | 0.00 | 0.00 | 55 | 1009.7 |
| 20260503175134 | 59 | 132 | 13.9 | 22.6 | 0.00 | 0.00 | 0.00 | 56 | 1010.2 |
| 20260503174134 | 58 | 100 | 13.9 | 20.0 | 0.00 | 0.00 | 0.00 | 60 | 1010.2 |
| 20260503173135 | 57 | 153 | 8.7 | 22.6 | 0.00 | 0.00 | 0.00 | 63 | 1010.4 |
| 20260503172135 | 58 | 142 | 7.8 | 24.3 | 0.00 | 0.00 | 0.00 | 60 | 1010.7 |
| 20260503170135 | 56 | 173 | 10.4 | 23.5 | 0.00 | 0.00 | 0.00 | 65 | 1011.2 |
| 20260503160134 | 51 | 159 | 6.1 | 14.8 | 0.00 | 0.00 | 0.00 | 77 | 1012.4 |
| 20260503150134 | 52 | 192 | 13.9 | 21.7 | 0.00 | 0.00 | 0.00 | 64 | 1013.4 |
| 20260503140134 | 51 | 239 | 8.7 | 14.8 | 0.00 | 0.00 | 0.00 | 64 | 1013.3 |
| 20260503131134 | 50 | 171 | 2.6 | 13.0 | 0.00 | 0.00 | 0.00 | 61 | 1014.1 |
| 20260503130134 | 49 | 207 | 7.0 | 13.9 | 0.00 | 0.00 | 0.00 | 62 | 1014.0 |
| 20260503120134 | 47 | 197 | 7.0 | 12.2 | 0.00 | 0.00 | 0.00 | 66 | 1014.1 |
| 20260503110134 | 46 | 202 | 4.3 | 7.8 | 0.00 | 0.00 | 0.00 | 65 | 1013.8 |
| 20260503100134 | 46 | 208 | 4.3 | 11.3 | 0.00 | 0.00 | 0.00 | 62 | 1014.0 |
| 20260503081134 | 45 | 182 | 4.3 | 7.8 | 0.00 | 0.00 | 0.00 | 59 | 1014.7 |
| 20260503080134 | 45 | 183 | 5.2 | 8.7 | 0.00 | 0.00 | 0.00 | 58 | 1014.7 |
| 20260503072134 | 47 | 207 | 6.1 | 9.6 | 0.00 | 0.00 | 0.00 | 53 | 1014.9 |
| 20260503071134 | 48 | 189 | 2.6 | 13.0 | 0.00 | 0.00 | 0.00 | 52 | 1015.0 |
| 20260503070134 | 48 | 208 | 3.5 | 7.8 | 0.00 | 0.00 | 0.00 | 52 | 1015.1 |